Location: Chiroubles
(46.1812°N, 4.6660°E)
Time: 17:27:50
(UTC+00:00)

N. Korean satellite - Visible Passes

Search period start: 06 December 2021 00:00
Search period end: 16 December 2021 00:00
Orbit: 446 x 495 km, 97.3° (Epoch: 06 December)

Date Brightness Start Highest point End Pass type
(mag) Time Alt. Az. Time Alt. Az. Time Alt. Az.
06 Dec 9.8 03:55:53 10° ENE 03:57:13 12° E 03:58:32 10° ESE visible
06 Dec 6.7 05:27:24 10° N 05:30:39 43° WNW 05:33:52 10° SW visible
07 Dec 6.4 04:58:46 10° NNE 05:02:10 77° ESE 05:05:32 10° S visible
07 Dec 9.8 17:09:48 10° SW 17:11:47 14° W 17:13:46 10° WNW visible
08 Dec 8.2 04:30:29 10° NNE 04:33:33 31° E 04:36:36 10° SSE visible
08 Dec 7.9 06:04:16 10° NNW 06:06:31 17° WNW 06:08:46 10° WSW visible
08 Dec 8.7 16:39:56 10° SSW 16:43:03 30° W 16:46:10 10° NNW visible
09 Dec 9.5 04:02:51 10° NE 04:04:49 15° E 04:06:47 10° SE visible
09 Dec 6.9 05:35:03 10° N 05:38:09 35° WNW 05:41:16 10° SW visible
10 Dec 6.2 05:06:16 10° N 05:09:39 84° WNW 05:13:03 10° SSW visible
10 Dec 10.0 17:18:05 10° WSW 17:19:21 12° W 17:20:38 10° WNW visible
11 Dec 7.9 04:41:36 36° ESE 04:41:36 36° ESE 04:44:15 10° S visible
11 Dec 8.6 06:15:42 10° W 06:15:42 10° W 06:15:47 10° W visible
11 Dec 9.1 16:47:41 10° SSW 16:50:34 24° W 16:53:27 10° NW visible
12 Dec 9.3 04:13:16 16° ESE 04:13:16 16° ESE 04:14:44 10° SE visible
12 Dec 8.1 05:47:23 18° WSW 05:47:23 18° WSW 05:48:32 10° SW visible
13 Dec 7.9 05:18:55 25° SSW 05:18:55 25° SSW 05:20:28 10° SSW visible
14 Dec 8.4 04:50:22 22° SSE 04:50:22 22° SSE 04:51:49 10° S visible
14 Dec9.306:24:28WSW06:24:28WSW06:17:57NNWvisible
14 Dec 9.5 16:55:24 10° SW 16:58:01 20° W 17:00:37 10° NW visible
15 Dec 9.3 04:21:47 14° SE 04:21:47 14° SE 04:22:30 10° SSE visible
15 Dec8.905:55:53SW05:55:53SW05:48:48Nvisible
